User: anonymous   Login
Location: Mactaquac Provincial Park
(45.9573°N, 66.8897°W)
Time: 06:46:46
(UTC-03:00)
Language:

Cosmos 1867 - Orbit

View from above orbital plane
View from above orbital plane
View from above satellite
View from above satellite

Ground track
Ground track

The orbit data is extracted from the following two-line orbital elements,

1 18187U 87060A   16237.79159451 -.00000085  00000-0  56170-5 0  9994
2 18187  65.0124 338.2926 0020296 263.0460  96.8316 14.31077209521586
Epoch (UTC): 24 August 2016 18:59:53
Eccentricity: 0.0020296
inclination: 65.0124°
perigee height: 773 km
apogee height: 802 km
right ascension of ascending node: 338.2926°
argument of perigee: 263.0460°
revolutions per day: 14.31077209
mean anomaly at epoch: 96.8316°
orbit number at epoch: 52158

The dashed part of the orbit path shows where the satellite is in the earth's shadow,  

DLR